Showing default

TIANHUI 2-01A, 44207

Orbit data source: Space-Track

TIANHUI 2-01A, 44207 is a payload satellite owned by G. Cehui dili (CN) in SSO that was launched on Mon, 29 Apr 2019 UTC via a CHANG ZHENG 4B launch vehicle from the Taiyaun Space Center, China (TSC). Payload-class satellites include a variety of spacecraft equipped with specific instruments for various scientific and technological missions. These include communications satellites like Starlink; space stations such as the ISS; scientific satellites like the Hubble; Earth observation satellites from companies like Planet Labs, Umbra, and HawkEye 360; GPS; miniature CubeSats for education and research; and military/defense satellites.

Loading next visibility...
Identifier
44207, 2019-024A
Orbit
SSO
Last TLE update
1 day ago
Origin
Manufacturer
SAST
Mission
Operational Civil Radar Imaging
Bus & Motor
CAST-2000?, Unknown motor
Mass
~1,000 kg wet, ~1,000 kg dry
Launch date (UTC)
2019-04-29 (6 years ago)
Launch vehicle
CHANG ZHENG 4B
Launch site
Taiyaun Space Center, China (TSC)
Object type
Payload
Rocket body
Debris
Shape & HBR
Box + 2 Pan, 3 m
Radar Cross Section
2.045 m², Large (>1 m²)

Expand to show TLE details & history

TLE from 1 day ago
0 TIANHUI 2-01A
1 44207U 19024A   25190.82898896  .00001250  00000-0  67145-4 0  9993
2 44207  97.4747 194.4093 0001366 113.6760 246.4617 15.16745635343000
Epoch: 2025-07-09T19:53Z
TLE epoch observation values (Epoch: 2025-07-09T19:53:44.646Z)
Latitude
0.00003°
Longitude
-32.03074°
Altitude
519.144 km
Speed
7.604 km/s
True Right ascension
12h 57m 38s
True Declination
0° 00' 00"
Sunlit
Object was in daylight at epoch
Visualization orbit readout
Latitude
-78.36764°
Longitude
8.65529°
Altitude
544.466 km
Speed
7.588 km/s
Apparent Right ascension
05h 36m 04s
Apparent Declination
-71° 29' 11"
Sunlit
Object is in full shadow
Visualization observer readout
Local Sidereal Time
17:04:18
Azimuth
184.774° SSW
Elevation
-58.175°
Doppler factor
1
Orbital elements
Apogee altitude
513.598 km
Perigee altitude
511.716 km
Semi-major axis
6,890.794 km
Eccentricity
0.00014
Inclination
97.4747°
RAAN
194.4093°
Arg. of periapsis
113.676°
True anomaly
Unknown
Mean anomaly
246.4617°
Eccentric anomaly
Unknown
Mean motion
3.79437 °/min
Orbital period
94.88 mins
BSTAR
0.000067145
Loading maneuver chart data...
Loading SW <> Apogee altitude chart data...
Loading historical data...
Loading historical data...
Loading historical data...
Loading historical data...
Loading historical data...
Loading historical data...
Loading historical data...

TIANHUI 2-01A Visibility forecast

Observer location: undefined°, undefined°

Span
Click to sort rows by Start time (UTC) header in descending order
Start Az.
Max El. time (UTC)
Max El. Az.
Max El.
End time (UTC)
End Az.
5 mins2025-07-11 13:38:21.196Z339.63° N2025-07-11 13:40:21.196Z280.953° WNW30.697°2025-07-11 13:43:21.196Z221.503° SW
5 mins2025-07-12 00:17:21.196Z164.685° S2025-07-12 00:19:21.196Z97.975° ESE44.922°2025-07-12 00:22:21.196Z349.147° N
|